Location: Dixon
(37.9953°N, 92.0959°W)
Time: 01:57:02
(UTC+00:00)

Hubble Space Telescope - Pass Details

Date: 16 December 2025
Orbit: 479 x 481 km, 28.5° (Epoch: 16 January)

Event Time Altitude Azimuth Distance (km) Brightness Sun altitude
Rises 00:12:23 0° 251° (WSW) 2,527 6.1 -15.7°
Reaches altitude 10° 00:15:09 10° 230° (SW) 1,647 4.3 -16.2°
Maximum altitude 00:17:38 17° 189° (S) 1,284 3.0 -16.7°
Drops below altitude 10° 00:20:08 10° 147° (SSE) 1,645 3.1 -17.2°
Enters shadow 00:20:28 - 144° (SE) 1,738 3.2 -17.2°
